Location: Hollywood Heights
(34.1067°N, 118.3400°W)
Time: 20:58:43
(UTC+00:00)

Daily predictions for brighter satellites

Satellite Brightness Start Highest point End
(mag) Time Altitude Azimuth Time Altitude Azimuth Time Altitude Azimuth
CZ-2C R/B 2.9 12:02:07 10° N 12:06:46 55° WNW 12:06:49 55° WNW
IRS-P3 4.1 12:02:29 10° NNE 12:07:49 81° ESE 12:11:55 18° S
Meteor 1-5 Rocket 4.4 12:07:22 10° N 12:13:06 77° E 12:18:57 10° SSE
NOSS 3-3 (A) 4.5 12:17:52 32° WNW 12:18:49 34° NW 12:24:20 10° NNE
NOSS 3-3 (C) 4.4 12:17:57 32° WNW 12:18:55 34° NW 12:24:27 10° NNE
CZ-2C R/B 3.8 12:16:27 10° NNW 12:18:57 21° NW 12:18:57 21° NW
Hubble Space Telescope 2.7 12:23:15 16° S 12:23:15 16° S 12:25:04 10° SSE
ATLAS CENTAUR R/B 3.6 12:23:17 14° NW 12:23:17 14° NW 12:24:58 10° NNW
Meteor 1-26 Rocket 4.4 12:21:07 36° WSW 12:22:38 45° WNW 12:28:00 10° N
CZ-2D R/B 3.4 12:21:25 10° N 12:25:43 84° WNW 12:28:55 17° SSW
Cosmos 1484 Rocket 3.2 12:25:41 10° N 12:29:00 38° WNW 12:29:00 38° WNW
Cosmos 1242 Rocket 4.2 12:28:38 10° NNW 12:29:53 20° NW 12:29:53 20° NW
SL-4 R/B 2.3 12:32:19 38° SW 12:32:19 38° SW 12:35:42 10° SSE
Envisat 3.6 12:32:20 10° N 12:36:54 35° WNW 12:38:53 26° WSW
BlueWalker 3 2.0 12:37:47 13° NW 12:41:11 75° NE 12:44:59 10° SE
USA 276 2.1 12:41:54 44° WNW 12:42:22 51° NW 12:45:11 10° NE
Cosmos 1607 4.4 12:38:46 10° SSW 12:44:46 63° ESE 12:50:50 10° NE
COSMOS 2455 3.7 12:44:53 10° S 12:50:38 51° ESE 12:56:27 10° NE
Cosmos 1833 4.5 12:46:06 10° NW 12:51:32 45° WSW 12:56:59 10° S
Meteor 1-14 Rocket 4.1 12:50:52 10° NNW 12:56:20 66° W 13:01:51 10° S
Cosmos 1151 Rocket 3.0 12:52:13 10° S 12:56:34 88° ESE 13:00:56 10° N
Meteor 1-10 Rocket 4.3 12:51:00 10° S 12:56:52 81° W 13:02:50 10° N
Cosmos 1680 Rocket 4.4 12:54:32 17° WSW 12:57:38 30° WNW 13:02:13 10° N
Cosmos 1408 Rocket 4.4 12:54:18 10° NNW 12:58:10 29° W 13:01:59 10° SSW
Lacrosse 5 rocket 2.4 13:00:58 18° WSW 13:01:21 18° WSW 13:03:49 10° SSW
H-2A R/B 2.9 12:58:05 10° NNE 13:02:52 50° E 13:07:36 10° S
Cosmos 972 Rocket 4.3 12:56:49 10° NNW 13:03:06 80° WSW 13:08:38 10° S
Aurora 2 Rocket 4.5 13:03:39 10° SSW 13:05:14 12° S 13:06:43 10° SE
Cosmos 1867 3.5 13:01:29 10° NNW 13:06:58 84° WSW 13:12:22 10° SSE
SJ-12 3.8 13:03:01 10° N 13:07:02 79° WNW 13:11:01 10° SSW
OAO 3 Rocket 3.3 13:04:12 14° W 13:08:28 70° SSW 13:13:24 10° ESE
H-2A R/B 3.8 13:05:37 10° NNW 13:08:30 23° WNW 13:11:22 10° SW
Cosmos 1743 Rocket 3.9 13:04:39 10° NNW 13:08:52 43° W 13:13:04 10° SSW
ARIANE 5 R/B 3.7 13:08:02 10° NNW 13:11:59 23° WNW 13:15:56 10° WSW
CZ-2C R/B 2.5 13:09:43 10° N 13:13:22 80° WNW 13:16:58 10° SSW
Cosmos 1371 Rocket 3.9 13:09:26 10° NNW 13:14:35 72° WSW 13:19:43 10° S
GP-B 3.4 13:11:02 10° NNW 13:15:15 44° W 13:19:26 10° SSW
PSLV R/B 3.6 13:11:27 10° N 13:15:37 56° WNW 13:19:48 10° SSW
Sich 1 3.2 13:12:37 10° NNW 13:16:54 50° W 13:21:08 10° SSW
Cosmos 1633 Rocket 4.2 13:13:07 10° N 13:17:25 49° E 13:21:40 10° SSE
Spot 4 Rocket 4.3 13:13:11 10° N 13:18:04 45° WNW 13:22:57 10° SW
CZ-2C R/B 1.7 13:15:45 11° W 13:18:54 36° SSW 13:22:09 10° SE
USA 234 3.4 13:12:29 10° NE 13:18:58 62° NW 13:25:24 10° WSW
Meteor 1-29 2.8 13:16:04 10° NNE 13:19:09 78° ESE 13:22:14 10° S
Genesis I 4.3 13:15:56 10° WSW 13:19:16 27° NW 13:22:38 10° N
DMSP B5D2-2 4.3 13:15:24 10° S 13:20:26 47° W 13:25:29 10° NNW
Cosmos 1536 2.9 13:18:48 10° N 13:22:45 82° E 13:26:43 10° S
Cosmos 2056 Rocket 3.5 13:17:49 10° NNW 13:22:57 63° WSW 13:28:08 10° S
Helios 1B rocket 4.0 13:25:06 10° NNW 13:27:32 16° WNW 13:29:58 10° WSW
USA 281 3.5 13:26:28 10° S 13:32:42 47° WSW 13:38:59 10° NW
